Skip Page Navigation
NASA JPL Caltech
NASA Logo - Jet Propulsion Laboratory + View the NASA Portal
+ Near-Earth Object (NEO) Program
Search JPL
JPL Home Earth Solar System Stars & Galaxies Technology
JPL Solar System Dynamics
BODIES ORBITS EPHEMERIDES TOOLS PHYSICAL DATA DISCOVERY FAQ SITE MAP
JPL Small-Body Database Browser
Search: [ help ]  
28340 Yukihiro (1999 EG5)
Classification: Main-belt Asteroid          SPK-ID: 2028340
Ephemeris | Orbit Diagram | Orbital Elements | Physical Parameters | Discovery Circumstances ]

[ show orbit diagram ]
Orbital Elements at Epoch 2457000.5 (2014-Dec-09.0) TDB
Reference: JPL 12 (heliocentric ecliptic J2000)
 Element Value Uncertainty (1-sigma)   Units 
e .1517111967439296 8.1015e-08  
a 3.011079843086542 3.6685e-08 AU
q 2.554265316600359 2.3314e-07 AU
i 11.83396802755253 7.6927e-06 deg
node 80.69691306938611 3.3571e-05 deg
peri 285.829535265852 4.1549e-05 deg
M 172.954601214986 2.5328e-05 deg
tp 2456083.622207697758
(2012-Jun-05.12220770)
0.0001302 JED
period 1908.454605486419
5.23
3.4877e-05
9.549e-08
d
yr
n .1886343007400193 3.4473e-09 deg/d
Q 3.467894369572725 4.2251e-08 AU
  Orbit Determination Parameters
   # obs. used (total)      980  
   data-arc span      6183 days (16.93 yr)  
   first obs. used      1998-01-25  
   last obs. used      2014-12-30  
   planetary ephem.      DE431  
   SB-pert. ephem.      SB431-BIG16  
   condition code      0  
   fit RMS      .50978  
   data source      ORB  
   producer      Otto Matic  
   solution date      2015-Mar-09 15:28:56  

Additional Information
 Earth MOID = 1.58534 AU 
 T_jup = 3.200 
[ show covariance matrix ]

Ephemeris | Orbit Diagram | Orbital Elements | Physical Parameters | Discovery Circumstances ]

Physical Parameter Table
Parameter Symbol Value Units Sigma Reference Notes
absolute magnitude H 12.4 mag n/a MPO257062  

28340 Yukihiro           Discovered 1999 Mar. 13 by H. Abe at Yatsuka.
Yukihiro Adachi (b. 1965) is a member of Matsue Astronomy Club. He has popularized astronomy in Shimane prefecture and is an observing partner of the discoverer.
NOTE: some special characters may not display properly (any characters within {} are an attempt to place the proper accent above a character)
Reference: 20071124/MPCPages.arcLast Updated: 2007-11-26

Alternate Designations
 1999 EG5 = 2000 JF57 
Ephemeris | Orbit Diagram | Orbital Elements | Physical Parameters | Discovery Circumstances ]
ABOUT SSD CREDITS/AWARDS PRIVACY/COPYRIGHT GLOSSARY LINKS
FirstGov 2015-Apr-02 01:23 UT
(server date/time)  
NASA Home Page
Site Manager:   Ryan S. Park
Webmaster  Alan B. Chamberlin